Вернуться в каталог

FENGYUN 1C DEB

АктивенSSO
NORAD 29782·DEBRIS·🇨🇳 China

Запущен May 10, 1999 с Taiyuan Satellite Launch Center

Loading…

Ближайшие Пролёты (ближайшие 24 часа)

TLE

СвежийSource: Space-Track

Эпоха: Sep 14, 2026, 21:59 UTC

1 29782U 99025BY  26257.91662502  .00001366  00000-0  74995-3 0  9999
2 29782  99.0811 320.3482 0055416 146.8069  28.5118 14.12705873  5687

Отслеживайте FENGYUN 1C DEB в реальном времени с AllMySat

Download on the App Store